CW6747 Weather Reports


Display with metric or nautical units.
time (UTC)temp
F
wind
direction
speed
MPH
gust
MPH
rain 1hr
in
rain 24hr
in
rain mn
in
humidity
%
barometer
mb
20260506131530 56 46 4.0 13.0 0.05 0.15 0.12 87 1005.8
20260506130030 56 348 4.0 12.0 0.05 0.14 0.11 86 1005.8
20260506124532 56 322 4.0 12.0 0.05 0.13 0.10 87 1005.8
20260506123030 56 360 2.0 8.0 0.06 0.12 0.09 87 1005.8
20260506121529 56 0 2.0 10.0 0.05 0.10 0.07 85 1005.9
20260506120030 56 310 2.0 10.0 0.04 0.09 0.06 84 1006.2
20260506114536 57 277 0.0 6.0 0.04 0.08 0.05 85 1006.5
20260506113031 56 5 2.0 8.0 0.02 0.06 0.03 85 1006.8
20260506111530 57 347 1.0 4.0 0.02 0.05 0.02 88 1006.2
20260506110032 57 262 0.0 1.0 0.02 0.05 0.02 86 1005.9
20260506104529 57 0 0.0 1.0 0.01 0.04 0.01 85 1006.0
20260506103030 58 0 1.0 2.0 0.01 0.04 0.01 83 1006.0
20260506101530 58 168 0.0 2.0 0.00 0.03 0.00 80 1006.0
20260506100028 59 0 0.0 2.0 0.00 0.03 0.00 78 1006.0
20260506094527 60 0 0.0 2.0 0.00 0.03 0.00 74 1005.7
20260506093029 61 0 0.0 2.0 0.00 0.03 0.00 71 1005.7
20260506091528 62 0 0.0 1.0 0.00 0.03 0.00 68 1005.8
20260506090028 62 0 1.0 5.0 0.00 0.03 0.00 67 1006.0
20260506084529 62 40 4.0 10.0 0.00 0.03 0.00 65 1006.2
20260506083028 62 61 3.0 9.0 0.00 0.03 0.00 64 1006.3
20260506081529 63 71 4.0 9.0 0.00 0.03 0.00 62 1006.4
20260506073028 64 40 5.0 14.0 0.00 0.03 0.00 55 1006.6
20260506071528 66 54 10.0 18.0 0.00 0.03 0.00 52 1006.5
20260506061528 68 13 6.0 14.0 0.00 0.03 0.00 47 1006.8
20260506044536 66 346 4.0 12.0 0.00 0.03 0.00 51 1007.5
20260506043030 64 348 6.0 16.0 0.00 0.03 0.00 53 1007.7
20260506041530 62 22 0.0 5.0 0.00 0.03 0.00 64 1007.6
20260506040028 61 360 0.0 4.0 0.00 0.03 0.00 64 1007.5
20260506034528 58 0 0.0 3.0 0.00 0.03 0.03 75 1007.5
20260506033035 56 0 0.0 2.0 0.00 0.03 0.03 83 1007.4
20260506031533 57 275 1.0 3.0 0.00 0.03 0.03 81 1007.4
20260506030050 57 0 0.0 3.0 0.00 0.03 0.03 80 1007.6
20260506024530 59 0 0.0 2.0 0.00 0.03 0.03 75 1007.6
20260506023030 59 0 1.0 2.0 0.00 0.03 0.03 75 1007.7
20260506021528 59 175 0.0 1.0 0.00 0.03 0.03 76 1007.7
20260506020028 61 0 0.0 3.0 0.00 0.03 0.03 72 1007.7
20260506014528 62 180 1.0 3.0 0.00 0.03 0.03 72 1007.7
20260506013028 62 0 0.0 2.0 0.00 0.03 0.03 70 1007.6
20260506011536 64 15 1.0 3.0 0.00 0.03 0.03 65 1007.5
20260506010031 64 0 0.0 1.0 0.00 0.03 0.03 66 1007.3
20260506004544 65 0 0.0 2.0 0.00 0.03 0.03 66 1007.4
20260506003034 65 0 0.0 2.0 0.00 0.03 0.03 66 1007.2
20260506001531 65 0 0.0 0.0 0.00 0.03 0.03 66 1007.2
20260506000030 66 0 0.0 2.0 0.00 0.03 0.03 66 1006.9
20260505234528 66 0 0.0 3.0 0.00 0.03 0.03 67 1006.9
20260505233028 67 0 0.0 2.0 0.00 0.03 0.03 69 1006.8
20260505231529 67 0 0.0 2.0 0.00 0.03 0.03 71 1006.9
20260505230039 67 0 0.0 3.0 0.00 0.03 0.03 75 1006.9
20260505224535 66 0 0.0 2.0 0.00 0.03 0.03 79 1006.9
20260505223029 65 292 1.0 2.0 0.00 0.03 0.03 83 1006.8
20260505221528 66 0 0.0 1.0 0.00 0.03 0.03 80 1006.9
20260505220032 65 0 0.0 3.0 0.00 0.03 0.03 80 1006.8
20260505214534 65 0 1.0 3.0 0.03 0.03 0.03 82 1006.9
20260505213027 63 122 0.0 1.0 0.03 0.03 0.03 82 1007.3
20260505211528 64 122 1.0 4.0 0.03 0.03 0.03 80 1007.0
20260505210027 65 101 3.0 23.0 0.03 0.03 0.03 69 1006.7
20260505204532 71 49 7.0 15.0 0.00 0.00 0.00 51 1006.6
20260505203033 73 78 2.0 8.0 0.00 0.00 0.00 47 1006.0
20260505201533 73 61 6.0 11.0 0.00 0.00 0.00 46 1006.1
20260505200028 73 42 7.0 22.0 0.00 0.00 0.00 44 1006.4
20260505194527 72 38 6.0 20.0 0.00 0.00 0.00 50 1006.5
20260505193035 74 30 14.0 24.0 0.00 0.00 0.00 40 1006.8
20260505191528 75 35 11.0 25.0 0.00 0.00 0.00 39 1006.6
20260505190036 76 30 13.0 23.0 0.00 0.00 0.00 37 1006.5
20260505184531 75 5 9.0 19.0 0.00 0.00 0.00 38 1006.5
20260505183030 76 12 14.0 28.0 0.00 0.00 0.00 39 1006.5
20260505181532 76 351 8.0 17.0 0.00 0.00 0.00 40 1006.6
20260505180037 75 59 15.0 28.0 0.00 0.00 0.00 40 1006.8
20260505174530 75 39 15.0 26.0 0.00 0.00 0.00 39 1007.1
20260505173027 76 284 12.0 26.0 0.00 0.00 0.00 37 1007.2
20260505171530 75 22 11.0 23.0 0.00 0.00 0.00 42 1007.1
20260505170031 75 5 8.0 25.0 0.00 0.00 0.00 44 1007.0
20260505164534 74 25 16.0 26.0 0.00 0.00 0.00 45 1007.4
20260505163036 73 31 13.0 27.0 0.00 0.00 0.00 44 1007.5
20260505161528 73 5 13.0 25.0 0.00 0.00 0.00 45 1007.7
20260505153034 72 349 13.0 22.0 0.00 0.00 0.00 48 1008.5
20260505151530 71 42 12.0 24.0 0.00 0.00 0.00 50 1008.4